Find Echostar V

NORAD ID: 25913 Int'l Des: 1999-050 Owner: ECHO Country: US operational
HEOCIRCULAR

現在のビュー

3D地球を読み込み中...

Echostar Vについて

説明を読み込み中...

次回通過

Passes for default location (London). Set your location on the main map for personalized predictions.

高度履歴

Loading altitude history...

軌道要素

1 25913U 99050A 26149.09622056 -.00000203 00000-0 00000+0 0 9990
2 25913 11.9302 36.2604 0003836 3.0809 198.3375 0.98747638 96686
Epoch: May 29, 2026 • Age: 27 hours

現在のステータス

高度 36228.3 km
速度 3.06 km/s
衛星直下点 -11.06°S, 50.34°W
打ち上げ日 Sep 23, 1999
運用期間 26.6 years
タイプ other

技術仕様

分類 Payload
質量 3177.00 kg
乾燥質量 1600.00 kg
総質量 3177.00 kg
長さ 3.10 m
直径 2.40 m
スパン 25.00 m
形状 Box + 2 Pan
製造者 LOR
バスタイプ FS-1300
フェーズステータス Renamed
所有者/国 ECHO/US

Most Searched